Time,TemperatureF,DewpointF,PressureIn,WindDirection,WindDirectionDegrees,WindSpeedMPH,WindSpeedGustMPH,Humidity,HourlyPrecipIn,Conditions,Clouds,dailyrainin,SoftwareType,DateUTC
2013-09-08 00:01:00,68.4,63.0,29.88,SSW,213,2.0,7.0,83,0.00,,CLR,0.00,VWS V14.00,2013-09-08 04:01:00,
2013-09-08 00:06:00,68.5,63.1,29.88,SW,214,5.0,7.0,83,0.00,,CLR,0.00,VWS V14.00,2013-09-08 04:06:00,
2013-09-08 00:11:00,68.5,63.5,29.88,SW,214,4.0,7.0,84,0.00,,CLR,0.00,VWS V14.00,2013-09-08 04:11:00,
2013-09-08 00:16:00,68.5,63.5,29.88,SW,214,6.0,8.0,84,0.00,,CLR,0.00,VWS V14.00,2013-09-08 04:16:00,
2013-09-08 00:21:00,68.5,63.5,29.87,SW,214,2.0,11.0,84,0.00,,CLR,0.00,VWS V14.00,2013-09-08 04:21:00,
2013-09-08 00:26:00,68.5,63.8,29.87,SW,216,6.0,10.0,85,0.00,,CLR,0.00,VWS V14.00,2013-09-08 04:26:00,
2013-09-08 00:31:00,68.5,63.8,29.87,SW,214,6.0,9.0,85,0.00,,CLR,0.00,VWS V14.00,2013-09-08 04:31:00,
2013-09-08 00:36:00,68.5,63.8,29.87,SSW,213,4.0,10.0,85,0.00,,CLR,0.00,VWS V14.00,2013-09-08 04:36:00,
2013-09-08 00:41:00,68.4,63.7,29.87,SW,214,4.0,9.0,85,0.00,,CLR,0.00,VWS V14.00,2013-09-08 04:41:00,
2013-09-08 00:46:00,68.4,63.7,29.87,SW,217,7.0,11.0,85,0.00,,CLR,0.00,VWS V14.00,2013-09-08 04:46:00,
2013-09-08 00:51:00,68.5,64.2,29.87,SSW,210,5.0,12.0,86,0.00,,CLR,0.00,VWS V14.00,2013-09-08 04:51:00,
2013-09-08 00:56:00,68.5,64.2,29.87,SW,215,7.0,11.0,86,0.00,,CLR,0.00,VWS V14.00,2013-09-08 04:56:00,
2013-09-08 01:01:00,68.6,64.2,29.87,SSW,207,3.0,11.0,86,0.00,,CLR,0.00,VWS V14.00,2013-09-08 05:01:00,
2013-09-08 01:06:00,68.6,64.2,29.86,SSW,209,5.0,8.0,86,0.00,,CLR,0.00,VWS V14.00,2013-09-08 05:06:00,
2013-09-08 01:11:00,68.7,64.3,29.86,SW,216,2.0,10.0,86,0.00,,CLR,0.00,VWS V14.00,2013-09-08 05:11:00,
2013-09-08 01:16:00,68.8,64.4,29.86,SW,219,1.0,6.0,86,0.00,,CLR,0.00,VWS V14.00,2013-09-08 05:16:00,
2013-09-08 01:21:00,68.8,64.4,29.86,SW,222,7.0,10.0,86,0.00,,CLR,0.00,VWS V14.00,2013-09-08 05:21:00,
2013-09-08 01:26:00,68.9,64.6,29.86,SW,222,7.0,11.0,86,0.00,,CLR,0.00,VWS V14.00,2013-09-08 05:26:00,
2013-09-08 01:31:00,68.9,64.6,29.86,SW,218,3.0,9.0,86,0.00,,CLR,0.00,VWS V14.00,2013-09-08 05:31:00,
2013-09-08 01:36:00,68.9,64.6,29.86,SW,215,2.0,4.0,86,0.00,,CLR,0.00,VWS V14.00,2013-09-08 05:36:00,
2013-09-08 01:41:00,68.9,64.9,29.86,SW,220,0.0,6.0,87,0.00,,CLR,0.00,VWS V14.00,2013-09-08 05:41:00,
2013-09-08 01:46:00,68.9,64.6,29.85,SW,229,4.0,12.0,86,0.00,,CLR,0.00,VWS V14.00,2013-09-08 05:46:00,
2013-09-08 01:51:00,68.9,64.6,29.85,SW,224,2.0,6.0,86,0.00,,CLR,0.00,VWS V14.00,2013-09-08 05:51:00,
2013-09-08 01:56:00,68.9,64.9,29.85,SW,223,0.0,5.0,87,0.00,,CLR,0.00,VWS V14.00,2013-09-08 05:56:00,
2013-09-08 02:01:00,68.9,64.9,29.84,SW,223,4.0,6.0,87,0.00,,CLR,0.00,VWS V14.00,2013-09-08 06:01:00,
2013-09-08 02:06:00,68.9,65.2,29.84,SW,221,0.0,6.0,88,0.00,,CLR,0.00,VWS V14.00,2013-09-08 06:06:00,
2013-09-08 02:11:00,68.9,65.2,29.84,SW,223,3.0,6.0,88,0.00,,CLR,0.00,VWS V14.00,2013-09-08 06:11:00,
2013-09-08 02:16:00,68.8,64.8,29.84,SW,221,0.0,6.0,87,0.00,,CLR,0.00,VWS V14.00,2013-09-08 06:16:00,
2013-09-08 02:21:00,68.8,64.8,29.84,SW,227,0.0,6.0,87,0.00,,CLR,0.00,VWS V14.00,2013-09-08 06:21:00,
2013-09-08 02:26:00,68.8,65.1,29.83,SW,227,3.0,6.0,88,0.00,,CLR,0.00,VWS V14.00,2013-09-08 06:26:00,
2013-09-08 02:31:00,68.8,65.1,29.83,SW,226,0.0,5.0,88,0.00,,CLR,0.00,VWS V14.00,2013-09-08 06:31:00,
2013-09-08 02:36:00,68.8,65.1,29.83,SW,226,6.0,9.0,88,0.00,,CLR,0.00,VWS V14.00,2013-09-08 06:36:00,
2013-09-08 02:41:00,68.9,65.2,29.83,SW,225,3.0,7.0,88,0.00,,CLR,0.00,VWS V14.00,2013-09-08 06:41:00,
2013-09-08 02:46:00,69.0,65.0,29.83,SW,226,4.0,10.0,87,0.00,,CLR,0.00,VWS V14.00,2013-09-08 06:46:00,
2013-09-08 02:51:00,69.0,65.0,29.83,SW,222,3.0,9.0,87,0.00,,CLR,0.00,VWS V14.00,2013-09-08 06:51:00,
2013-09-08 02:56:00,69.1,65.1,29.83,SW,227,6.0,15.0,87,0.00,,CLR,0.00,VWS V14.00,2013-09-08 06:56:00,
2013-09-08 03:01:00,69.1,65.1,29.83,SW,225,6.0,6.0,87,0.00,,CLR,0.00,VWS V14.00,2013-09-08 07:01:00,
2013-09-08 03:06:00,69.1,64.7,29.83,SW,225,0.0,6.0,86,0.00,,CLR,0.00,VWS V14.00,2013-09-08 07:06:00,
2013-09-08 03:11:00,69.0,64.6,29.83,SW,223,4.0,11.0,86,0.00,,CLR,0.00,VWS V14.00,2013-09-08 07:11:00,
2013-09-08 03:16:00,69.0,65.0,29.83,SW,223,7.0,9.0,87,0.00,,CLR,0.00,VWS V14.00,2013-09-08 07:16:00,
2013-09-08 03:21:00,69.0,65.0,29.83,SW,223,0.0,4.0,87,0.00,,CLR,0.00,VWS V14.00,2013-09-08 07:21:00,
2013-09-08 03:26:00,69.0,65.0,29.82,SW,222,2.0,6.0,87,0.00,,CLR,0.00,VWS V14.00,2013-09-08 07:26:00,
2013-09-08 03:31:00,69.0,65.0,29.82,SW,227,6.0,9.0,87,0.00,,CLR,0.00,VWS V14.00,2013-09-08 07:31:00,
2013-09-08 03:36:00,69.0,65.0,29.82,SW,226,1.0,10.0,87,0.00,,CLR,0.00,VWS V14.00,2013-09-08 07:36:00,
2013-09-08 03:41:00,69.0,65.0,29.82,SW,229,0.0,6.0,87,0.00,,CLR,0.00,VWS V14.00,2013-09-08 07:41:00,
2013-09-08 03:46:00,69.1,65.1,29.82,SW,227,5.0,6.0,87,0.00,,CLR,0.00,VWS V14.00,2013-09-08 07:46:00,
2013-09-08 03:51:00,69.2,65.5,29.81,SW,227,3.0,9.0,88,0.00,,CLR,0.00,VWS V14.00,2013-09-08 07:51:00,
2013-09-08 03:56:00,69.2,65.2,29.81,SW,227,2.0,13.0,87,0.00,,CLR,0.00,VWS V14.00,2013-09-08 07:56:00,
2013-09-08 04:01:00,69.2,65.2,29.81,SW,226,1.0,9.0,87,0.00,,CLR,0.00,VWS V14.00,2013-09-08 08:01:00,
2013-09-08 04:06:00,69.2,64.5,29.81,SW,226,5.0,13.0,85,0.00,,CLR,0.00,VWS V14.00,2013-09-08 08:06:00,
2013-09-08 04:11:00,69.2,64.2,29.80,SW,224,5.0,11.0,84,0.00,,CLR,0.00,VWS V14.00,2013-09-08 08:11:00,
2013-09-08 04:16:00,69.2,64.2,29.80,SW,225,2.0,9.0,84,0.00,,CLR,0.00,VWS V14.00,2013-09-08 08:16:00,
2013-09-08 04:21:00,69.3,64.3,29.80,SW,227,4.0,9.0,84,0.00,,CLR,0.00,VWS V14.00,2013-09-08 08:21:00,
2013-09-08 04:26:00,69.4,64.4,29.80,SW,223,6.0,13.0,84,0.00,,CLR,0.00,VWS V14.00,2013-09-08 08:26:00,
2013-09-08 04:31:00,69.4,64.4,29.80,SW,225,4.0,11.0,84,0.00,,CLR,0.00,VWS V14.00,2013-09-08 08:31:00,
2013-09-08 04:36:00,69.4,64.4,29.79,SW,218,6.0,15.0,84,0.00,,CLR,0.00,VWS V14.00,2013-09-08 08:36:00,
2013-09-08 04:40:00,69.4,64.0,29.79,SW,225,2.0,11.0,83,0.00,,CLR,0.00,VWS V14.00,2013-09-08 08:40:00,
2013-09-08 04:45:00,69.3,63.6,29.79,SW,227,5.0,10.0,82,0.00,,CLR,0.00,VWS V14.00,2013-09-08 08:45:00,
2013-09-08 04:50:00,69.3,63.9,29.79,SW,219,2.0,10.0,83,0.00,,CLR,0.00,VWS V14.00,2013-09-08 08:50:00,
2013-09-08 04:55:00,69.3,64.3,29.79,SW,221,0.0,9.0,84,0.00,,CLR,0.00,VWS V14.00,2013-09-08 08:55:00,
2013-09-08 05:00:00,69.2,64.2,29.79,SW,221,0.0,1.0,84,0.00,,CLR,0.00,VWS V14.00,2013-09-08 09:00:00,
2013-09-08 05:05:00,69.1,63.7,29.79,SW,217,0.0,7.0,83,0.00,,CLR,0.00,VWS V14.00,2013-09-08 09:05:00,
2013-09-08 05:10:00,68.9,63.2,29.79,SW,217,0.0,5.0,82,0.00,,CLR,0.00,VWS V14.00,2013-09-08 09:10:00,
2013-09-08 05:15:00,68.9,63.2,29.79,SW,219,0.0,6.0,82,0.00,,CLR,0.00,VWS V14.00,2013-09-08 09:15:00,
2013-09-08 05:20:00,68.8,63.1,29.79,SW,219,0.0,1.0,82,0.00,,CLR,0.00,VWS V14.00,2013-09-08 09:20:00,
2013-09-08 05:25:00,68.6,62.9,29.79,SW,219,0.0,0.0,82,0.00,,CLR,0.00,VWS V14.00,2013-09-08 09:25:00,
2013-09-08 05:30:00,68.5,63.1,29.79,SW,219,0.0,3.0,83,0.00,,CLR,0.00,VWS V14.00,2013-09-08 09:30:00,
2013-09-08 05:35:00,68.4,63.0,29.79,SW,219,0.0,0.0,83,0.00,,CLR,0.00,VWS V14.00,2013-09-08 09:35:00,
2013-09-08 05:40:00,68.2,63.2,29.79,SW,219,0.0,0.0,84,0.00,,CLR,0.00,VWS V14.00,2013-09-08 09:40:00,
2013-09-08 05:45:00,68.1,63.1,29.79,SW,219,0.0,0.0,84,0.00,,CLR,0.00,VWS V14.00,2013-09-08 09:45:00,
2013-09-08 05:50:00,67.8,62.5,29.79,SW,219,0.0,0.0,83,0.00,,CLR,0.00,VWS V14.00,2013-09-08 09:50:00,
2013-09-08 05:55:00,67.7,62.4,29.79,SW,219,0.0,2.0,83,0.00,,CLR,0.00,VWS V14.00,2013-09-08 09:55:00,
2013-09-08 06:00:00,67.6,61.9,29.79,SW,219,0.0,0.0,82,0.00,,CLR,0.00,VWS V14.00,2013-09-08 10:00:00,
2013-09-08 06:05:00,67.4,61.7,29.79,SW,219,0.0,0.0,82,0.00,,CLR,0.00,VWS V14.00,2013-09-08 10:05:00,
2013-09-08 06:10:00,67.2,61.5,29.79,SW,219,0.0,0.0,82,0.00,,CLR,0.00,VWS V14.00,2013-09-08 10:10:00,
2013-09-08 06:15:00,67.0,61.3,29.79,SW,219,0.0,0.0,82,0.00,,CLR,0.00,VWS V14.00,2013-09-08 10:15:00,
2013-09-08 06:20:00,66.9,61.2,29.78,SW,219,0.0,2.0,82,0.00,,CLR,0.00,VWS V14.00,2013-09-08 10:20:00,
2013-09-08 06:25:00,66.8,60.8,29.78,SW,219,0.0,0.0,81,0.00,,CLR,0.00,VWS V14.00,2013-09-08 10:25:00,
2013-09-08 06:30:00,66.7,61.0,29.78,SW,219,0.0,0.0,82,0.00,,CLR,0.00,VWS V14.00,2013-09-08 10:30:00,
2013-09-08 06:35:00,66.6,60.9,29.78,SW,219,0.0,0.0,82,0.00,,CLR,0.00,VWS V14.00,2013-09-08 10:35:00,
2013-09-08 06:40:00,66.5,60.8,29.79,SW,219,0.0,0.0,82,0.00,,CLR,0.00,VWS V14.00,2013-09-08 10:40:00,
2013-09-08 06:45:00,66.2,60.5,29.79,SW,219,0.0,1.0,82,0.00,,CLR,0.00,VWS V14.00,2013-09-08 10:45:00,
2013-09-08 06:50:00,66.0,60.3,29.79,SW,219,0.0,0.0,82,0.00,,CLR,0.00,VWS V14.00,2013-09-08 10:50:00,
2013-09-08 06:55:00,65.9,60.3,29.79,SW,219,0.0,0.0,82,0.00,,CLR,0.00,VWS V14.00,2013-09-08 10:55:00,
2013-09-08 07:00:00,65.9,60.3,29.79,SW,219,0.0,0.0,82,0.00,,CLR,0.00,VWS V14.00,2013-09-08 11:00:00,
2013-09-08 07:05:00,65.9,60.3,29.79,SW,219,0.0,0.0,82,0.00,,CLR,0.00,VWS V14.00,2013-09-08 11:05:00,
2013-09-08 07:10:00,66.1,60.5,29.80,SW,219,0.0,0.0,82,0.00,,CLR,0.00,VWS V14.00,2013-09-08 11:10:00,
2013-09-08 07:15:00,66.3,60.7,29.80,SW,219,0.0,0.0,82,0.00,,CLR,0.00,VWS V14.00,2013-09-08 11:15:00,
2013-09-08 07:20:00,66.5,60.8,29.80,SW,219,0.0,0.0,82,0.00,,CLR,0.00,VWS V14.00,2013-09-08 11:20:00,
2013-09-08 07:25:00,66.9,61.2,29.80,SW,219,0.0,0.0,82,0.00,,CLR,0.00,VWS V14.00,2013-09-08 11:25:00,
2013-09-08 07:30:00,67.6,61.6,29.79,SW,219,0.0,0.0,81,0.00,,CLR,0.00,VWS V14.00,2013-09-08 11:30:00,
2013-09-08 07:35:00,68.3,61.9,29.79,SW,219,0.0,0.0,80,0.00,,CLR,0.00,VWS V14.00,2013-09-08 11:35:00,
2013-09-08 07:40:00,68.9,62.1,29.79,SW,219,0.0,1.0,79,0.00,,CLR,0.00,VWS V14.00,2013-09-08 11:40:00,
2013-09-08 07:45:00,69.3,61.8,29.79,SW,219,0.0,4.0,77,0.00,,CLR,0.00,VWS V14.00,2013-09-08 11:45:00,
2013-09-08 07:50:00,69.7,61.8,29.79,SW,219,0.0,1.0,76,0.00,,CLR,0.00,VWS V14.00,2013-09-08 11:50:00,
2013-09-08 07:55:00,70.1,62.2,29.80,SW,219,0.0,1.0,76,0.00,,CLR,0.00,VWS V14.00,2013-09-08 11:55:00,
2013-09-08 08:00:00,70.4,62.1,29.80,SW,219,0.0,5.0,75,0.00,,CLR,0.00,VWS V14.00,2013-09-08 12:00:00,
2013-09-08 08:05:00,70.6,61.5,29.79,SW,219,0.0,4.0,73,0.00,,CLR,0.00,VWS V14.00,2013-09-08 12:05:00,
2013-09-08 08:10:00,70.8,61.3,29.79,SW,217,0.0,4.0,72,0.00,,CLR,0.00,VWS V14.00,2013-09-08 12:10:00,
2013-09-08 08:15:00,71.2,62.1,29.79,SW,217,0.0,1.0,73,0.00,,CLR,0.00,VWS V14.00,2013-09-08 12:15:00,
2013-09-08 08:20:00,71.5,61.2,29.79,SW,225,0.0,15.0,70,0.00,,CLR,0.00,VWS V14.00,2013-09-08 12:20:00,
2013-09-08 08:25:00,71.6,61.7,29.79,SW,225,0.0,1.0,71,0.00,,CLR,0.00,VWS V14.00,2013-09-08 12:25:00,
2013-09-08 08:30:00,72.0,61.7,29.79,SW,224,0.0,0.0,70,0.00,,CLR,0.00,VWS V14.00,2013-09-08 12:30:00,
2013-09-08 08:35:00,72.2,61.5,29.79,SW,222,0.0,4.0,69,0.00,,CLR,0.00,VWS V14.00,2013-09-08 12:35:00,
2013-09-08 08:40:00,72.2,61.5,29.79,SW,232,0.0,3.0,69,0.00,,CLR,0.00,VWS V14.00,2013-09-08 12:40:00,
2013-09-08 08:45:00,72.3,61.6,29.79,SW,232,0.0,3.0,69,0.00,,CLR,0.00,VWS V14.00,2013-09-08 12:45:00,
2013-09-08 08:50:00,72.5,62.2,29.79,SW,230,0.0,0.0,70,0.00,,CLR,0.00,VWS V14.00,2013-09-08 12:50:00,
2013-09-08 08:55:00,72.9,62.5,29.79,SW,231,0.0,0.0,70,0.00,,CLR,0.00,VWS V14.00,2013-09-08 12:55:00,
2013-09-08 09:00:00,73.0,61.8,29.78,SW,231,0.0,1.0,68,0.00,,CLR,0.00,VWS V14.00,2013-09-08 13:00:00,
2013-09-08 09:05:00,73.2,62.4,29.78,SW,231,0.0,2.0,69,0.00,,CLR,0.00,VWS V14.00,2013-09-08 13:05:00,
2013-09-08 09:10:00,73.1,62.3,29.78,SW,221,5.0,5.0,69,0.00,,CLR,0.00,VWS V14.00,2013-09-08 13:10:00,
2013-09-08 09:15:00,72.9,61.7,29.78,SW,221,0.0,2.0,68,0.00,,CLR,0.00,VWS V14.00,2013-09-08 13:15:00,
2013-09-08 09:20:00,73.2,62.4,29.78,SW,222,3.0,4.0,69,0.00,,CLR,0.00,VWS V14.00,2013-09-08 13:20:00,
2013-09-08 09:25:00,73.0,61.8,29.78,SW,221,0.0,3.0,68,0.00,,CLR,0.00,VWS V14.00,2013-09-08 13:25:00,
2013-09-08 09:30:00,73.0,63.0,29.78,SW,221,0.0,0.0,71,0.00,,CLR,0.00,VWS V14.00,2013-09-08 13:30:00,
2013-09-08 09:35:00,73.7,62.9,29.78,SW,221,0.0,0.0,69,0.00,,CLR,0.00,VWS V14.00,2013-09-08 13:35:00,
2013-09-08 09:40:00,74.4,64.0,29.78,SW,221,0.0,0.0,70,0.00,,CLR,0.00,VWS V14.00,2013-09-08 13:40:00,
2013-09-08 09:45:00,74.9,63.2,29.78,SW,220,0.0,0.0,67,0.00,,CLR,0.00,VWS V14.00,2013-09-08 13:45:00,
2013-09-08 09:50:00,75.0,62.9,29.78,SW,219,4.0,10.0,66,0.00,,CLR,0.00,VWS V14.00,2013-09-08 13:50:00,
2013-09-08 09:55:00,74.6,63.3,29.78,SW,214,0.0,0.0,68,0.00,,CLR,0.00,VWS V14.00,2013-09-08 13:55:00,
2013-09-08 10:00:00,74.9,63.6,29.78,SW,214,0.0,0.0,68,0.00,,CLR,0.00,VWS V14.00,2013-09-08 14:00:00,
2013-09-08 10:05:00,75.5,64.2,29.78,SW,214,0.0,2.0,68,0.00,,CLR,0.00,VWS V14.00,2013-09-08 14:05:00,
2013-09-08 10:10:00,75.6,63.9,29.78,SW,214,0.0,2.0,67,0.00,,CLR,0.00,VWS V14.00,2013-09-08 14:10:00,
2013-09-08 10:15:00,76.0,64.7,29.78,SW,214,0.0,0.0,68,0.00,,CLR,0.00,VWS V14.00,2013-09-08 14:15:00,
2013-09-08 10:20:00,76.3,64.6,29.78,SW,214,0.0,2.0,67,0.00,,CLR,0.00,VWS V14.00,2013-09-08 14:20:00,
2013-09-08 10:25:00,76.4,64.6,29.79,SSW,213,0.0,2.0,67,0.00,,CLR,0.00,VWS V14.00,2013-09-08 14:25:00,
2013-09-08 10:30:00,76.7,64.9,29.78,SSW,213,0.0,0.0,67,0.00,,CLR,0.00,VWS V14.00,2013-09-08 14:30:00,
2013-09-08 10:35:00,76.7,64.5,29.78,SW,214,3.0,6.0,66,0.00,,CLR,0.00,VWS V14.00,2013-09-08 14:35:00,
2013-09-08 10:40:00,76.2,65.3,29.78,SSW,209,3.0,6.0,69,0.00,,CLR,0.00,VWS V14.00,2013-09-08 14:40:00,
2013-09-08 10:45:00,76.2,65.7,29.78,SSW,209,0.0,5.0,70,0.00,,CLR,0.00,VWS V14.00,2013-09-08 14:45:00,
2013-09-08 10:50:00,76.8,65.4,29.78,SW,217,5.0,6.0,68,0.00,,CLR,0.00,VWS V14.00,2013-09-08 14:50:00,
2013-09-08 10:55:00,77.2,65.4,29.78,SW,218,0.0,3.0,67,0.00,,CLR,0.00,VWS V14.00,2013-09-08 14:55:00,
2013-09-08 11:00:00,77.7,65.9,29.78,SW,216,5.0,9.0,67,0.00,,CLR,0.00,VWS V14.00,2013-09-08 15:00:00,
2013-09-08 11:05:00,77.9,65.6,29.78,SSW,198,0.0,0.0,66,0.00,,CLR,0.00,VWS V14.00,2013-09-08 15:05:00,
2013-09-08 11:09:00,78.2,65.9,29.77,SSW,198,5.0,6.0,66,0.00,,CLR,0.00,VWS V14.00,2013-09-08 15:09:00,
2013-09-08 11:14:00,78.3,66.0,29.78,SSW,202,0.0,1.0,66,0.00,,CLR,0.00,VWS V14.00,2013-09-08 15:14:00,
2013-09-08 11:19:00,78.3,66.0,29.77,SSW,202,0.0,0.0,66,0.00,,CLR,0.00,VWS V14.00,2013-09-08 15:19:00,
2013-09-08 11:24:00,78.2,65.5,29.78,NE,44,5.0,5.0,65,0.00,,CLR,0.00,VWS V14.00,2013-09-08 15:24:00,
2013-09-08 11:29:00,78.3,66.0,29.78,East,96,5.0,6.0,66,0.00,,CLR,0.00,VWS V14.00,2013-09-08 15:29:00,
2013-09-08 11:34:00,78.6,65.9,29.78,ENE,77,0.0,2.0,65,0.00,,CLR,0.00,VWS V14.00,2013-09-08 15:34:00,
2013-09-08 11:39:00,78.6,65.0,29.78,NNE,24,0.0,5.0,63,0.00,,CLR,0.00,VWS V14.00,2013-09-08 15:39:00,
2013-09-08 11:44:00,78.3,65.6,29.78,NNE,24,0.0,3.0,65,0.00,,CLR,0.00,VWS V14.00,2013-09-08 15:44:00,
2013-09-08 11:49:00,77.8,65.5,29.78,North,9,2.0,7.0,66,0.00,,CLR,0.00,VWS V14.00,2013-09-08 15:49:00,
2013-09-08 11:54:00,77.4,64.7,29.78,NNE,14,3.0,9.0,65,0.00,,CLR,0.00,VWS V14.00,2013-09-08 15:54:00,
2013-09-08 11:59:00,77.9,66.5,29.78,NNE,20,0.0,4.0,68,0.00,,CLR,0.00,VWS V14.00,2013-09-08 15:59:00,
2013-09-08 12:04:00,78.2,65.9,29.78,North,11,0.0,2.0,66,0.00,,CLR,0.00,VWS V14.00,2013-09-08 16:04:00,
2013-09-08 12:09:00,78.2,66.4,29.78,NNE,21,6.0,6.0,67,0.00,,CLR,0.00,VWS V14.00,2013-09-08 16:09:00,
2013-09-08 12:14:00,78.0,65.3,29.78,NNE,21,0.0,3.0,65,0.00,,CLR,0.00,VWS V14.00,2013-09-08 16:14:00,
2013-09-08 12:19:00,77.4,65.6,29.78,WSW,238,3.0,4.0,67,0.00,,CLR,0.00,VWS V14.00,2013-09-08 16:19:00,
2013-09-08 12:24:00,77.3,65.1,29.78,West,275,0.0,4.0,66,0.00,,CLR,0.00,VWS V14.00,2013-09-08 16:24:00,
2013-09-08 12:29:00,77.4,65.2,29.78,WNW,284,0.0,4.0,66,0.00,,CLR,0.00,VWS V14.00,2013-09-08 16:29:00,
2013-09-08 12:34:00,77.2,64.5,29.78,NNE,15,9.0,13.0,65,0.00,,CLR,0.00,VWS V14.00,2013-09-08 16:34:00,
2013-09-08 12:39:00,76.6,64.4,29.78,North,355,0.0,10.0,66,0.00,,CLR,0.00,VWS V14.00,2013-09-08 16:39:00,
2013-09-08 12:44:00,76.6,65.3,29.78,NNW,327,1.0,8.0,68,0.00,,CLR,0.00,VWS V14.00,2013-09-08 16:44:00,
2013-09-08 12:49:00,77.0,65.2,29.78,NE,41,6.0,7.0,67,0.00,,CLR,0.00,VWS V14.00,2013-09-08 16:49:00,
2013-09-08 12:54:00,77.5,65.3,29.78,ENE,59,0.0,1.0,66,0.00,,CLR,0.00,VWS V14.00,2013-09-08 16:54:00,
2013-09-08 12:59:00,78.0,65.3,29.78,NE,35,0.0,7.0,65,0.00,,CLR,0.00,VWS V14.00,2013-09-08 16:59:00,
2013-09-08 13:04:00,77.7,65.0,29.78,East,87,1.0,5.0,65,0.00,,CLR,0.00,VWS V14.00,2013-09-08 17:04:00,
2013-09-08 13:09:00,77.1,64.0,29.78,North,360,4.0,10.0,64,0.00,,CLR,0.00,VWS V14.00,2013-09-08 17:09:00,
2013-09-08 13:14:00,76.6,64.0,29.79,NNE,31,0.0,2.0,65,0.00,,CLR,0.00,VWS V14.00,2013-09-08 17:14:00,
2013-09-08 13:19:00,76.6,64.0,29.79,North,11,3.0,4.0,65,0.00,,CLR,0.00,VWS V14.00,2013-09-08 17:19:00,
2013-09-08 13:24:00,76.8,64.6,29.78,NNW,329,0.0,6.0,66,0.00,,CLR,0.00,VWS V14.00,2013-09-08 17:24:00,
2013-09-08 13:29:00,76.6,63.5,29.78,North,5,2.0,7.0,64,0.00,,CLR,0.00,VWS V14.00,2013-09-08 17:29:00,
2013-09-08 13:34:00,76.9,64.7,29.78,NNE,21,3.0,4.0,66,0.00,,CLR,0.00,VWS V14.00,2013-09-08 17:34:00,
2013-09-08 13:39:00,77.5,64.4,29.78,NE,34,4.0,4.0,64,0.00,,CLR,0.00,VWS V14.00,2013-09-08 17:39:00,
2013-09-08 13:44:00,77.1,64.0,29.78,North,11,5.0,6.0,64,0.00,,CLR,0.00,VWS V14.00,2013-09-08 17:44:00,
2013-09-08 13:49:00,76.9,64.2,29.78,NNE,28,4.0,4.0,65,0.00,,CLR,0.00,VWS V14.00,2013-09-08 17:49:00,
2013-09-08 13:54:00,76.5,63.9,29.78,NNE,24,6.0,7.0,65,0.00,,CLR,0.00,VWS V14.00,2013-09-08 17:54:00,
2013-09-08 13:59:00,76.3,64.1,29.78,NNE,24,3.0,4.0,66,0.00,,CLR,0.00,VWS V14.00,2013-09-08 17:59:00,
2013-09-08 14:04:00,76.4,64.2,29.78,NNE,17,0.0,3.0,66,0.00,,CLR,0.00,VWS V14.00,2013-09-08 18:04:00,
2013-09-08 14:09:00,76.8,65.0,29.78,NE,42,7.0,9.0,67,0.00,,CLR,0.00,VWS V14.00,2013-09-08 18:09:00,
2013-09-08 14:14:00,76.5,63.4,29.78,NNE,26,4.0,6.0,64,0.00,,CLR,0.00,VWS V14.00,2013-09-08 18:14:00,
2013-09-08 14:19:00,76.2,64.0,29.78,NNE,28,4.0,4.0,66,0.00,,CLR,0.00,VWS V14.00,2013-09-08 18:19:00,
2013-09-08 14:24:00,76.3,64.1,29.78,NNE,30,5.0,5.0,66,0.00,,CLR,0.00,VWS V14.00,2013-09-08 18:24:00,
2013-09-08 14:29:00,76.3,64.1,29.78,NNE,28,4.0,13.0,66,0.00,,CLR,0.00,VWS V14.00,2013-09-08 18:29:00,
2013-09-08 14:34:00,76.5,63.9,29.78,NNE,32,0.0,0.0,65,0.00,,CLR,0.00,VWS V14.00,2013-09-08 18:34:00,
2013-09-08 14:39:00,76.9,63.8,29.78,NE,36,2.0,2.0,64,0.00,,CLR,0.00,VWS V14.00,2013-09-08 18:39:00,
2013-09-08 14:44:00,77.1,64.0,29.79,NE,40,0.0,0.0,64,0.00,,CLR,0.00,VWS V14.00,2013-09-08 18:44:00,
2013-09-08 14:49:00,77.0,63.5,29.79,NNE,28,0.0,0.0,63,0.00,,CLR,0.00,VWS V14.00,2013-09-08 18:49:00,
2013-09-08 14:54:00,76.7,63.2,29.79,NNE,30,0.0,0.0,63,0.00,,CLR,0.00,VWS V14.00,2013-09-08 18:54:00,
2013-09-08 14:59:00,77.0,64.3,29.79,North,355,2.0,2.0,65,0.00,,CLR,0.00,VWS V14.00,2013-09-08 18:59:00,
2013-09-08 15:04:00,78.0,63.5,29.79,NNE,13,0.0,1.0,61,0.00,,CLR,0.00,VWS V14.00,2013-09-08 19:04:00,
2013-09-08 15:09:00,78.8,63.3,29.79,NE,43,0.0,3.0,59,0.00,,CLR,0.00,VWS V14.00,2013-09-08 19:09:00,
2013-09-08 15:14:00,79.5,63.9,29.79,NE,43,0.0,1.0,59,0.00,,CLR,0.00,VWS V14.00,2013-09-08 19:14:00,
2013-09-08 15:19:00,80.1,62.5,29.79,North,11,13.0,15.0,55,0.00,,CLR,0.00,VWS V14.00,2013-09-08 19:19:00,
2013-09-08 15:24:00,79.6,63.0,29.80,NNE,15,5.0,5.0,57,0.00,,CLR,0.00,VWS V14.00,2013-09-08 19:24:00,
2013-09-08 15:29:00,78.6,62.1,29.80,North,360,10.0,10.0,57,0.00,,CLR,0.00,VWS V14.00,2013-09-08 19:29:00,
2013-09-08 15:34:00,77.9,61.5,29.80,North,350,2.0,7.0,57,0.00,,CLR,0.00,VWS V14.00,2013-09-08 19:34:00,
2013-09-08 15:39:00,77.6,61.7,29.80,North,9,6.0,11.0,58,0.00,,CLR,0.00,VWS V14.00,2013-09-08 19:39:00,
2013-09-08 15:44:00,77.1,61.2,29.81,NNE,15,7.0,7.0,58,0.00,,CLR,0.00,VWS V14.00,2013-09-08 19:44:00,
2013-09-08 15:49:00,76.7,62.2,29.81,NNE,28,0.0,3.0,61,0.00,,CLR,0.00,VWS V14.00,2013-09-08 19:49:00,
2013-09-08 15:54:00,77.0,61.6,29.81,NW,314,0.0,4.0,59,0.00,,CLR,0.00,VWS V14.00,2013-09-08 19:54:00,
2013-09-08 15:59:00,77.3,60.4,29.81,North,5,9.0,11.0,56,0.00,,CLR,0.00,VWS V14.00,2013-09-08 19:59:00,
2013-09-08 16:04:00,76.6,59.8,29.82,North,5,5.0,7.0,56,0.00,,CLR,0.00,VWS V14.00,2013-09-08 20:04:00,
2013-09-08 16:09:00,76.5,57.0,29.82,NNE,23,2.0,4.0,51,0.00,,CLR,0.00,VWS V14.00,2013-09-08 20:09:00,
2013-09-08 16:14:00,76.6,57.7,29.82,NNE,21,4.0,4.0,52,0.00,,CLR,0.00,VWS V14.00,2013-09-08 20:14:00,
2013-09-08 16:19:00,76.7,56.7,29.82,North,360,4.0,6.0,50,0.00,,CLR,0.00,VWS V14.00,2013-09-08 20:19:00,
2013-09-08 16:24:00,76.6,57.7,29.83,North,355,10.0,12.0,52,0.00,,CLR,0.00,VWS V14.00,2013-09-08 20:24:00,
2013-09-08 16:29:00,75.9,56.0,29.83,North,5,6.0,10.0,50,0.00,,CLR,0.00,VWS V14.00,2013-09-08 20:29:00,
2013-09-08 16:34:00,75.6,56.2,29.83,NNE,14,4.0,5.0,51,0.00,,CLR,0.00,VWS V14.00,2013-09-08 20:34:00,
2013-09-08 16:39:00,75.6,55.7,29.83,North,5,4.0,10.0,50,0.00,,CLR,0.00,VWS V14.00,2013-09-08 20:39:00,
2013-09-08 16:44:00,75.6,56.2,29.83,North,10,4.0,8.0,51,0.00,,CLR,0.00,VWS V14.00,2013-09-08 20:44:00,
2013-09-08 16:49:00,75.8,55.9,29.83,NW,323,9.0,9.0,50,0.00,,CLR,0.00,VWS V14.00,2013-09-08 20:49:00,
2013-09-08 16:54:00,75.4,53.8,29.84,NNE,15,5.0,5.0,47,0.00,,CLR,0.00,VWS V14.00,2013-09-08 20:54:00,
2013-09-08 16:58:00,74.9,52.8,29.84,North,355,5.0,6.0,46,0.00,,CLR,0.00,VWS V14.00,2013-09-08 20:58:00,
2013-09-08 17:03:00,74.7,52.0,29.84,NNE,15,2.0,4.0,45,0.00,,CLR,0.00,VWS V14.00,2013-09-08 21:03:00,
2013-09-08 17:08:00,74.6,51.9,29.84,NW,315,3.0,3.0,45,0.00,,CLR,0.00,VWS V14.00,2013-09-08 21:08:00,
2013-09-08 17:13:00,74.7,52.6,29.85,NW,322,0.0,2.0,46,0.00,,CLR,0.00,VWS V14.00,2013-09-08 21:13:00,
2013-09-08 17:18:00,74.8,52.1,29.85,NNE,32,1.0,1.0,45,0.00,,CLR,0.00,VWS V14.00,2013-09-08 21:18:00,
2013-09-08 17:23:00,74.7,53.2,29.86,NNE,32,0.0,0.0,47,0.00,,CLR,0.00,VWS V14.00,2013-09-08 21:23:00,
2013-09-08 17:28:00,74.3,52.8,29.86,NNE,30,3.0,4.0,47,0.00,,CLR,0.00,VWS V14.00,2013-09-08 21:28:00,
2013-09-08 17:33:00,73.7,53.4,29.86,NE,40,9.0,9.0,49,0.00,,CLR,0.00,VWS V14.00,2013-09-08 21:33:00,
2013-09-08 17:38:00,73.0,53.3,29.86,NNE,18,2.0,2.0,50,0.00,,CLR,0.00,VWS V14.00,2013-09-08 21:38:00,
2013-09-08 17:43:00,72.5,52.8,29.87,North,360,3.0,3.0,50,0.00,,CLR,0.00,VWS V14.00,2013-09-08 21:43:00,
2013-09-08 17:48:00,72.2,51.4,29.87,NNE,23,6.0,9.0,48,0.00,,CLR,0.00,VWS V14.00,2013-09-08 21:48:00,
2013-09-08 17:53:00,71.8,51.6,29.87,North,360,6.0,6.0,49,0.00,,CLR,0.00,VWS V14.00,2013-09-08 21:53:00,
2013-09-08 17:58:00,71.5,50.8,29.88,NNE,19,6.0,6.0,48,0.00,,CLR,0.00,VWS V14.00,2013-09-08 21:58:00,
2013-09-08 18:03:00,71.2,50.5,29.88,NNE,14,2.0,3.0,48,0.00,,CLR,0.00,VWS V14.00,2013-09-08 22:03:00,
2013-09-08 18:08:00,71.0,50.3,29.88,NNE,13,3.0,3.0,48,0.00,,CLR,0.00,VWS V14.00,2013-09-08 22:08:00,
2013-09-08 18:13:00,70.7,50.6,29.88,North,5,2.0,3.0,49,0.00,,CLR,0.00,VWS V14.00,2013-09-08 22:13:00,
2013-09-08 18:18:00,70.4,50.9,29.89,North,9,2.0,3.0,50,0.00,,CLR,0.00,VWS V14.00,2013-09-08 22:18:00,
2013-09-08 18:23:00,70.2,50.7,29.89,North,360,6.0,6.0,50,0.00,,CLR,0.00,VWS V14.00,2013-09-08 22:23:00,
2013-09-08 18:28:00,70.1,51.2,29.89,NNE,17,5.0,5.0,51,0.00,,CLR,0.00,VWS V14.00,2013-09-08 22:28:00,
2013-09-08 18:33:00,70.0,51.6,29.89,NNE,14,1.0,6.0,52,0.00,,CLR,0.00,VWS V14.00,2013-09-08 22:33:00,
2013-09-08 18:38:00,69.7,50.8,29.90,North,11,3.0,8.0,51,0.00,,CLR,0.00,VWS V14.00,2013-09-08 22:38:00,
2013-09-08 18:43:00,69.5,50.6,29.90,NNE,15,5.0,9.0,51,0.00,,CLR,0.00,VWS V14.00,2013-09-08 22:43:00,
2013-09-08 18:48:00,69.2,50.8,29.91,NNE,16,0.0,8.0,52,0.00,,CLR,0.00,VWS V14.00,2013-09-08 22:48:00,
2013-09-08 18:53:00,68.8,50.5,29.91,NNE,14,3.0,6.0,52,0.00,,CLR,0.00,VWS V14.00,2013-09-08 22:53:00,
2013-09-08 18:58:00,68.4,50.6,29.90,NNE,14,6.0,7.0,53,0.00,,CLR,0.00,VWS V14.00,2013-09-08 22:58:00,
2013-09-08 19:03:00,68.1,50.8,29.91,NNE,13,1.0,5.0,54,0.00,,CLR,0.00,VWS V14.00,2013-09-08 23:03:00,
2013-09-08 19:08:00,67.8,51.1,29.91,NNE,13,0.0,4.0,55,0.00,,CLR,0.00,VWS V14.00,2013-09-08 23:08:00,
2013-09-08 19:13:00,67.5,51.3,29.92,NNE,13,0.0,0.0,56,0.00,,CLR,0.00,VWS V14.00,2013-09-08 23:13:00,
2013-09-08 19:18:00,67.0,52.2,29.93,NNE,13,0.0,0.0,59,0.00,,CLR,0.00,VWS V14.00,2013-09-08 23:18:00,
2013-09-08 19:23:00,66.2,52.8,29.93,NNE,13,0.0,0.0,62,0.00,,CLR,0.00,VWS V14.00,2013-09-08 23:23:00,
2013-09-08 19:28:00,65.6,53.1,29.93,NNE,13,0.0,0.0,64,0.00,,CLR,0.00,VWS V14.00,2013-09-08 23:28:00,
2013-09-08 19:33:00,65.0,52.5,29.93,NNE,13,1.0,1.0,64,0.00,,CLR,0.00,VWS V14.00,2013-09-08 23:33:00,
2013-09-08 19:38:00,64.3,51.9,29.94,NNE,13,0.0,2.0,64,0.00,,CLR,0.00,VWS V14.00,2013-09-08 23:38:00,
2013-09-08 19:43:00,64.1,51.3,29.94,NNE,13,0.0,1.0,63,0.00,,CLR,0.00,VWS V14.00,2013-09-08 23:43:00,
2013-09-08 19:48:00,64.0,50.7,29.94,NNE,13,0.0,3.0,62,0.00,,CLR,0.00,VWS V14.00,2013-09-08 23:48:00,
2013-09-08 19:53:00,63.9,50.2,29.95,NNE,13,0.0,4.0,61,0.00,,CLR,0.00,VWS V14.00,2013-09-08 23:53:00,
2013-09-08 19:58:00,63.9,50.2,29.95,NNE,13,0.0,5.0,61,0.00,,CLR,0.00,VWS V14.00,2013-09-08 23:58:00,
2013-09-08 20:03:00,63.8,50.1,29.96,NNE,13,0.0,0.0,61,0.00,,CLR,0.00,VWS V14.00,2013-09-09 00:03:00,
2013-09-08 20:08:00,63.6,49.9,29.96,NNE,13,0.0,0.0,61,0.00,,CLR,0.00,VWS V14.00,2013-09-09 00:08:00,
2013-09-08 20:13:00,63.5,49.4,29.97,NNE,13,0.0,1.0,60,0.00,,CLR,0.00,VWS V14.00,2013-09-09 00:13:00,
2013-09-08 20:18:00,63.3,49.6,29.97,NNE,13,0.0,2.0,61,0.00,,CLR,0.00,VWS V14.00,2013-09-09 00:18:00,
2013-09-08 20:23:00,63.1,49.0,29.97,NNE,13,0.0,2.0,60,0.00,,CLR,0.00,VWS V14.00,2013-09-09 00:23:00,
2013-09-08 20:28:00,63.0,48.9,29.98,NNE,14,3.0,5.0,60,0.00,,CLR,0.00,VWS V14.00,2013-09-09 00:28:00,
2013-09-08 20:33:00,62.9,48.4,29.98,NNE,14,0.0,4.0,59,0.00,,CLR,0.00,VWS V14.00,2013-09-09 00:33:00,
2013-09-08 20:38:00,62.7,48.6,29.99,NNE,14,0.0,4.0,60,0.00,,CLR,0.00,VWS V14.00,2013-09-09 00:38:00,
2013-09-08 20:43:00,62.6,47.6,29.99,NNE,13,0.0,3.0,58,0.00,,CLR,0.00,VWS V14.00,2013-09-09 00:43:00,
2013-09-08 20:48:00,62.5,48.0,30.00,NNE,13,0.0,3.0,59,0.00,,CLR,0.00,VWS V14.00,2013-09-09 00:48:00,
2013-09-08 20:53:00,62.2,47.7,30.00,NNE,13,0.0,0.0,59,0.00,,CLR,0.00,VWS V14.00,2013-09-09 00:53:00,
2013-09-08 20:58:00,62.3,48.2,30.00,NNE,13,0.0,2.0,60,0.00,,CLR,0.00,VWS V14.00,2013-09-09 00:58:00,
2013-09-08 21:03:00,61.9,47.9,30.01,NNE,13,0.0,2.0,60,0.00,,CLR,0.00,VWS V14.00,2013-09-09 01:03:00,
2013-09-08 21:08:00,61.5,47.9,30.01,NNE,13,0.0,3.0,61,0.00,,CLR,0.00,VWS V14.00,2013-09-09 01:08:00,
2013-09-08 21:13:00,61.4,48.3,30.01,NNE,13,0.0,1.0,62,0.00,,CLR,0.00,VWS V14.00,2013-09-09 01:13:00,
2013-09-08 21:18:00,61.2,48.5,30.01,NNE,13,4.0,4.0,63,0.00,,CLR,0.00,VWS V14.00,2013-09-09 01:18:00,
2013-09-08 21:23:00,61.3,48.2,30.02,NNE,13,4.0,9.0,62,0.00,,CLR,0.00,VWS V14.00,2013-09-09 01:23:00,
2013-09-08 21:28:00,61.5,47.9,30.02,NNE,18,2.0,13.0,61,0.00,,CLR,0.00,VWS V14.00,2013-09-09 01:28:00,
2013-09-08 21:33:00,61.6,47.6,30.02,North,10,2.0,8.0,60,0.00,,CLR,0.00,VWS V14.00,2013-09-09 01:33:00,
2013-09-08 21:38:00,61.6,47.2,30.02,NNE,14,2.0,8.0,59,0.00,,CLR,0.00,VWS V14.00,2013-09-09 01:38:00,
2013-09-08 21:43:00,61.3,46.9,30.03,NNE,15,9.0,9.0,59,0.00,,CLR,0.00,VWS V14.00,2013-09-09 01:43:00,
2013-09-08 21:48:00,61.3,46.4,30.03,North,5,4.0,10.0,58,0.00,,CLR,0.00,VWS V14.00,2013-09-09 01:48:00,
2013-09-08 21:53:00,61.2,46.3,30.03,North,360,0.0,6.0,58,0.00,,CLR,0.00,VWS V14.00,2013-09-09 01:53:00,
2013-09-08 21:58:00,61.0,46.6,30.03,North,360,0.0,4.0,59,0.00,,CLR,0.00,VWS V14.00,2013-09-09 01:58:00,
2013-09-08 22:03:00,60.8,46.4,30.04,North,5,3.0,5.0,59,0.00,,CLR,0.00,VWS V14.00,2013-09-09 02:03:00,
2013-09-08 22:08:00,60.5,46.1,30.03,North,5,3.0,7.0,59,0.00,,CLR,0.00,VWS V14.00,2013-09-09 02:08:00,
2013-09-08 22:13:00,60.4,46.0,30.04,North,5,3.0,5.0,59,0.00,,CLR,0.00,VWS V14.00,2013-09-09 02:13:00,
2013-09-08 22:18:00,60.1,46.2,30.04,North,9,4.0,5.0,60,0.00,,CLR,0.00,VWS V14.00,2013-09-09 02:18:00,
2013-09-08 22:23:00,59.9,46.0,30.04,North,5,2.0,6.0,60,0.00,,CLR,0.00,VWS V14.00,2013-09-09 02:23:00,
2013-09-08 22:28:00,59.7,46.2,30.04,North,360,0.0,7.0,61,0.00,,CLR,0.00,VWS V14.00,2013-09-09 02:28:00,
2013-09-08 22:33:00,59.6,46.2,30.04,North,5,0.0,4.0,61,0.00,,CLR,0.00,VWS V14.00,2013-09-09 02:33:00,
2013-09-08 22:38:00,59.4,46.4,30.05,North,360,7.0,7.0,62,0.00,,CLR,0.00,VWS V14.00,2013-09-09 02:38:00,
2013-09-08 22:43:00,59.3,45.9,30.05,NNE,12,3.0,7.0,61,0.00,,CLR,0.00,VWS V14.00,2013-09-09 02:43:00,
2013-09-08 22:48:00,59.3,45.9,30.05,NNE,12,0.0,4.0,61,0.00,,CLR,0.00,VWS V14.00,2013-09-09 02:48:00,
2013-09-08 22:53:00,59.1,45.7,30.05,NNE,15,0.0,6.0,61,0.00,,CLR,0.00,VWS V14.00,2013-09-09 02:53:00,
2013-09-08 22:58:00,58.9,45.5,30.05,NNE,16,5.0,6.0,61,0.00,,CLR,0.00,VWS V14.00,2013-09-09 02:58:00,
2013-09-08 23:03:00,58.8,45.8,30.05,NNE,14,4.0,5.0,62,0.00,,CLR,0.00,VWS V14.00,2013-09-09 03:03:00,
2013-09-08 23:08:00,58.7,45.3,30.05,NNE,13,2.0,6.0,61,0.00,,CLR,0.00,VWS V14.00,2013-09-09 03:08:00,
2013-09-08 23:13:00,58.5,45.1,30.05,North,5,6.0,7.0,61,0.00,,CLR,0.00,VWS V14.00,2013-09-09 03:13:00,
2013-09-08 23:18:00,58.3,45.3,30.05,NNE,19,6.0,7.0,62,0.00,,CLR,0.00,VWS V14.00,2013-09-09 03:18:00,
2013-09-08 23:23:00,58.2,44.8,30.06,NNE,16,3.0,7.0,61,0.00,,CLR,0.00,VWS V14.00,2013-09-09 03:23:00,
2013-09-08 23:28:00,58.0,45.1,30.06,NNE,21,2.0,8.0,62,0.00,,CLR,0.00,VWS V14.00,2013-09-09 03:28:00,
2013-09-08 23:33:00,57.8,44.9,30.06,NNE,13,2.0,6.0,62,0.00,,CLR,0.00,VWS V14.00,2013-09-09 03:33:00,
2013-09-08 23:38:00,57.6,45.1,30.06,NNE,13,0.0,6.0,63,0.00,,CLR,0.00,VWS V14.00,2013-09-09 03:38:00,
2013-09-08 23:43:00,57.3,45.2,30.06,North,11,5.0,7.0,64,0.00,,CLR,0.00,VWS V14.00,2013-09-09 03:43:00,
2013-09-08 23:48:00,57.1,45.0,30.05,North,11,5.0,5.0,64,0.00,,CLR,0.00,VWS V14.00,2013-09-09 03:48:00,
2013-09-08 23:53:00,56.9,45.3,30.06,North,11,4.0,6.0,65,0.00,,CLR,0.00,VWS V14.00,2013-09-09 03:53:00,
2013-09-08 23:58:00,56.7,45.1,30.06,NNE,14,3.0,7.0,65,0.00,,CLR,0.00,VWS V14.00,2013-09-09 03:58:00,